Погода в Мяксе

Россия / Вологодская область     58°53′16″N   38°11′53″E
темп.,
°C
ветер,
м/с
пор.,
м/с
влажн.,
%
обл.,
%
осадки,
мм/ч
давл.,
гПа
погр.,
м
13 мая, чт
чт1300:00+14вюв3117873 0.0 1021215
03:00+14вюв25838 0.0 1020111
06:00+15юв411815 0.0 1020356
09:00+18ююв48676 0.0 1020888
12:00+18ю477079 0.1 1020899
15:00+17ююв367478 0.1 1018464
18:00+19ююв256237 0.0 1015868
21:00+13ююв2399100 4.6 1016152
14 мая, пт
пт1400:00+11ю2498100 0.6 1016106
03:00+9ю389859 0.6 1016169
06:00+9ю3796100 0.0 1017157
09:00+13ю37826 0.0 1017390
12:00+16ю476898 0.0 1017890
15:00+18ю475494 0.0 10161442
18:00+18ююв26605 0.0 1015743
21:00+13юв368727 0.0 101495
15 мая, сб
сб1500:00+13юв2592100 0.0 1013113
03:00+14в3109793 2.3 1011472
06:00+14юв389646 0.1 1010350
09:00+17ююв51185100 0.1 1009617
12:00+20ю61066100 0.1 1008955
15:00+19ю41078100 2.2 1007572
18:00+16ю399111 4.2 1005277
21:00+12ю3119621 5.4 1006246
16 мая, вс
вс1600:00+12ю513958 0.1 1007497
03:00+11ююз5129743 0.1 1008454
06:00+11ююз389882 0.0 1010279
09:00+14юз3692100 0.1 1011418
12:00+15зюз248197 0.0 1013531
15:00+20зсз135741 0.1 10121159
18:00+18юз126771 0.3 101286
21:00+12ююз22915 0.4 101319
17 мая, пн
пн1700:00+10ююз11933 0.0 101510
03:00+10всв00917 0.0 101610
06:00+12юв12855 0.0 101775
09:00+17ююв236799 0.0 1018495
12:00+20ю3354100 0.0 10181158
15:00+21ю3454100 0.0 10171316
18:00+20юв2564100 0.0 1016527
21:00+15вюв378770 0.0 1016137